DW2893 Weather Reports


Display with metric or nautical units.
time (UTC)temp
F
wind
direction
speed
MPH
gust
MPH
rain 1hr
in
rain 24hr
in
rain mn
in
humidity
%
barometer
mb
20260903142307 79 140 5.0 12.0 0.00 0.00 0.00 88 1012.4
20260903141807 79 219 5.0 17.0 0.00 0.00 0.00 88 1012.4
20260903140807 78 120 8.0 12.0 0.00 0.00 0.00 89 1012.3
20260903135807 78 171 6.0 10.0 0.00 0.00 0.00 89 1012.3
20260903135307 78 132 6.0 12.0 0.00 0.00 0.00 89 1012.3
20260903134807 78 139 6.0 12.0 0.00 0.00 0.00 89 1012.3
20260903134306 78 123 6.0 12.0 0.00 0.00 0.00 89 1012.3
20260903130807 78 146 6.0 9.0 0.00 0.00 0.00 90 1011.9
20260903125806 77 136 5.0 9.0 0.00 0.00 0.00 90 1011.9
20260903125306 77 158 3.0 10.0 0.00 0.00 0.00 90 1011.9
20260903124806 77 131 5.0 12.0 0.00 0.00 0.00 90 1011.7
20260903124307 77 142 5.0 10.0 0.00 0.00 0.00 90 1011.7
20260903123306 77 144 5.0 9.0 0.00 0.00 0.00 90 1011.7
20260903122806 77 125 5.0 8.0 0.00 0.00 0.00 90 1011.7
20260903121807 77 119 2.0 5.0 0.00 0.00 0.00 90 1011.7
20260903121307 77 104 4.0 6.0 0.00 0.00 0.00 90 1011.7
20260903120306 77 142 3.0 5.0 0.00 0.00 0.00 90 1011.4
20260903115306 76 164 3.0 6.0 0.00 0.00 0.00 90 1011.4
20260903114806 76 158 5.0 8.0 0.00 0.00 0.00 90 1011.5
20260903113806 76 155 3.0 7.0 0.00 0.00 0.00 90 1011.5
20260903113306 76 149 2.0 6.0 0.00 0.00 0.00 89 1011.4
20260903112306 77 154 3.0 9.0 0.00 0.00 0.00 89 1011.5
20260903110806 77 142 2.0 7.0 0.00 0.00 0.00 89 1011.3
20260903104806 77 140 5.0 9.0 0.00 0.00 0.00 91 1011.2
20260903103806 77 147 4.0 8.0 0.00 0.00 0.00 92 1011.0
20260903102806 76 143 1.0 5.0 0.00 0.00 0.00 92 1011.0
20260903102306 76 153 0.0 2.0 0.00 0.00 0.00 92 1011.0
20260903101806 76 153 1.0 2.0 0.00 0.00 0.00 92 1011.0
20260903101306 76 153 0.0 3.0 0.00 0.00 0.00 93 1011.1
20260903100306 76 153 2.0 5.0 0.00 0.00 0.00 93 1011.1
20260903093806 76 140 2.0 6.0 0.00 0.00 0.00 92 1011.2
20260903093306 76 126 2.0 6.0 0.00 0.00 0.00 92 1011.2
20260903092805 76 120 2.0 3.0 0.00 0.00 0.00 92 1011.2
20260903091306 76 113 1.0 3.0 0.00 0.00 0.00 92 1011.1
20260903084805 76 80 2.0 6.0 0.00 0.00 0.00 91 1011.2
20260903083306 77 125 3.0 6.0 0.00 0.00 0.00 89 1011.2
20260903082805 77 120 5.0 8.0 0.00 0.00 0.00 88 1011.2
20260903082306 77 124 2.0 7.0 0.00 0.00 0.00 88 1011.2
20260903081806 78 112 5.0 9.0 0.00 0.00 0.00 87 1011.2
20260903075306 79 99 6.0 13.0 0.00 0.00 0.00 82 1011.0
20260903074805 79 119 6.0 14.0 0.00 0.00 0.00 82 1010.9
20260903074305 79 108 7.0 14.0 0.00 0.00 0.00 81 1010.9
20260903073806 80 143 3.0 7.0 0.00 0.00 0.00 81 1010.9
20260903072307 80 74 4.0 9.0 0.00 0.00 0.00 80 1011.2
20260903065805 80 99 5.0 9.0 0.00 0.00 0.00 80 1011.0
20260903065306 80 109 3.0 12.0 0.00 0.00 0.00 80 1011.0
20260903063805 80 113 5.0 12.0 0.00 0.00 0.00 80 1011.1
20260903063305 80 121 5.0 12.0 0.00 0.00 0.00 79 1011.2
20260903062805 80 109 6.0 15.0 0.00 0.00 0.00 79 1011.2
20260903062306 80 138 5.0 14.0 0.00 0.00 0.00 79 1011.5
20260903061805 80 102 6.0 13.0 0.00 0.00 0.00 79 1011.5
20260903061305 80 113 7.0 13.0 0.00 0.00 0.00 78 1011.5
20260903055306 80 105 6.0 14.0 0.00 0.00 0.00 77 1011.5
20260903054805 80 91 9.0 14.0 0.00 0.00 0.00 77 1011.5
20260903054305 80 113 8.0 18.0 0.00 0.00 0.00 76 1011.5
20260903053805 80 94 6.0 16.0 0.00 0.00 0.00 76 1011.5
20260903051805 81 104 9.0 17.0 0.00 0.00 0.00 75 1011.7
20260903051305 81 122 8.0 14.0 0.00 0.00 0.00 74 1011.8
20260903045805 82 90 9.0 18.0 0.00 0.00 0.00 73 1011.8
20260903045306 82 112 9.0 18.0 0.00 0.00 0.00 72 1011.6
20260903042805 83 117 7.0 15.0 0.00 0.00 0.00 70 1011.7
20260903042306 83 93 8.0 14.0 0.00 0.00 0.00 70 1011.8
20260903041304 83 130 5.0 14.0 0.00 0.00 0.00 70 1011.9
20260903040805 84 110 7.0 13.0 0.00 0.00 0.00 68 1011.9
20260903035306 84 110 7.0 13.0 0.00 0.00 0.00 67 1011.9
20260903034805 84 114 8.0 16.0 0.00 0.00 0.00 67 1011.9
20260903033804 85 98 7.0 15.0 0.00 0.00 0.00 66 1011.9
20260903033305 85 99 9.0 14.0 0.00 0.00 0.00 65 1011.9
20260903032805 85 116 9.0 15.0 0.00 0.00 0.00 64 1011.7
20260903031805 85 115 9.0 20.0 0.00 0.00 0.00 63 1011.7
20260903031305 86 112 9.0 17.0 0.00 0.00 0.00 63 1011.7
20260903025805 87 139 9.0 17.0 0.00 0.00 0.00 62 1011.8
20260903024805 87 147 7.0 12.0 0.00 0.00 0.00 62 1011.5
20260903024305 87 127 6.0 15.0 0.00 0.00 0.00 61 1011.5
20260903022306 89 97 6.0 15.0 0.00 0.00 0.00 57 1011.2
20260903021805 90 102 9.0 18.0 0.00 0.00 0.00 56 1011.1
20260903021304 90 124 9.0 18.0 0.00 0.00 0.00 55 1011.1
20260903020805 90 102 10.0 20.0 0.00 0.00 0.00 54 1010.8
20260903020305 90 128 8.0 16.0 0.00 0.00 0.00 53 1010.7
20260903015804 91 107 9.0 18.0 0.00 0.00 0.00 53 1010.7
20260903013304 91 124 7.0 18.0 0.00 0.00 0.00 52 1010.3
20260903012805 91 99 9.0 14.0 0.00 0.00 0.00 52 1010.3
20260903012306 92 116 8.0 14.0 0.00 0.00 0.00 52 1010.3
20260903010804 92 121 8.0 14.0 0.00 0.00 0.00 51 1010.1
20260903005804 93 104 8.0 14.0 0.00 0.00 0.00 51 1010.1
20260903005306 93 118 5.0 12.0 0.00 0.00 0.00 51 1010.1
20260903004304 93 93 8.0 13.0 0.00 0.00 0.00 50 1010.0
20260903003304 94 134 7.0 12.0 0.00 0.00 0.00 50 1010.0
20260903000808 95 110 9.0 20.0 0.00 0.00 0.00 49 1009.9
20260903000310 95 77 10.0 18.0 0.00 0.00 0.00 48 1009.9
20260902235809 95 118 7.0 17.0 0.00 0.00 0.00 49 1009.9
20260902235308 95 74 6.0 13.0 0.00 0.00 0.00 49 1010.0
20260902234809 95 105 7.0 14.0 0.00 0.00 0.00 48 1009.6
20260902234308 96 102 8.0 20.0 0.00 0.00 0.00 47 1009.6
20260902232808 97 89 10.0 18.0 0.00 0.00 0.00 46 1009.7
20260902230809 98 100 6.0 13.0 0.00 0.00 0.00 42 1009.6
20260902222808 98 69 5.0 10.0 0.00 0.00 0.00 42 1009.8
20260902215308 98 58 6.0 12.0 0.00 0.00 0.00 41 1010.0
20260902213808 99 83 5.0 10.0 0.00 0.00 0.00 42 1010.2
20260902210808 98 94 5.0 12.0 0.00 0.00 0.00 43 1010.5
20260902210308 98 64 6.0 15.0 0.00 0.00 0.00 43 1010.5
20260902205808 98 49 3.0 10.0 0.00 0.00 0.00 43 1010.6
20260902203308 98 57 4.0 10.0 0.00 0.00 0.00 44 1010.9
20260902202808 98 98 3.0 8.0 0.00 0.00 0.00 44 1011.0
20260902201807 98 73 6.0 12.0 0.00 0.00 0.00 43 1011.2
20260902200807 98 44 4.0 12.0 0.00 0.00 0.00 44 1011.5
20260902200308 99 79 8.0 15.0 0.00 0.00 0.00 43 1011.5
20260902194808 97 145 6.0 12.0 0.00 0.00 0.00 45 1011.7
20260902194308 96 77 2.0 12.0 0.00 0.00 0.00 47 1011.7
20260902191308 97 93 2.0 6.0 0.00 0.00 0.00 48 1012.2
20260902184807 95 122 3.0 8.0 0.00 0.00 0.00 48 1012.8
20260902183807 95 85 5.0 12.0 0.00 0.00 0.00 50 1012.7
20260902174807 94 81 3.0 12.0 0.00 0.00 0.00 52 1013.9
20260902174307 94 55 4.0 12.0 0.00 0.00 0.00 52 1013.9
20260902171308 92 93 5.0 8.0 0.00 0.00 0.00 55 1014.5
20260902161807 91 67 3.0 8.0 0.00 0.00 0.00 59 1014.8
20260902160807 91 166 1.0 7.0 0.00 0.00 0.00 60 1014.9
20260902160307 90 121 3.0 7.0 0.00 0.00 0.00 61 1014.9
20260902155806 90 74 3.0 9.0 0.00 0.00 0.00 62 1014.9
20260902154807 90 166 5.0 10.0 0.00 0.00 0.00 62 1014.9
20260902154307 90 156 4.0 6.0 0.00 0.00 0.00 62 1014.9
20260902153306 89 149 1.0 7.0 0.00 0.00 0.00 64 1014.7
20260902152806 89 173 5.0 8.0 0.00 0.00 0.00 64 1014.7
20260902152308 88 152 3.0 7.0 0.00 0.00 0.00 65 1014.7
20260902144806 85 159 1.0 5.0 0.00 0.00 0.00 69 1014.6
20260902144307 84 170 2.0 6.0 0.00 0.00 0.00 71 1014.5
20260902143306 84 139 2.0 7.0 0.00 0.00 0.00 72 1014.5